This demonstration page uses our WeatherBlox Daily Observations layout. Learn more.

Left ArrowRight Arrow

Hourly Observations for October 4, 2019

Temp ( °F °C ) Dew Point ( °F °C ) Humidity (%) Winds ( mph kmh ) Pressure ( in mb ) Visibility ( mi km ) Precip ( " mm )
12:53 am 00:53 Clear 70 21.1 62 16.7 76 76 ENE 12 19 30.00 1016 10 16 0.00 0.00
1:53 am 01:53 Mostly Clear 67 19.4 61 16.1 81 81 NNE 7 11 30.01 1016 10 16 0.00 0.00
2:53 am 02:53 Clear 65 18.3 60 15.6 84 84 N 8 13 30.01 1016 10 16 0.00 0.00
3:53 am 03:53 Clear 64 17.8 59 15 84 84 NNE 8 13 29.99 1016 10 16 0.00 0.00
4:53 am 04:53 Clear 63 17.2 59 15 87 87 N 7 11 30.00 1016 10 16 0.00 0.00
5:53 am 05:53 Clear 63 17.2 58 14.4 84 84 NE 7 11 30.01 1016 10 16 0.00 0.00
6:53 am 06:53 Clear 62 16.7 58 14.4 86 86 ENE 7 11 30.03 1017 10 16 0.00 0.00
7:53 am 07:53 Sunny 61 16.1 57 13.9 87 87 ENE 5 7 30.04 1017 10 16 0.00 0.00
8:53 am 08:53 Sunny 64 17.8 58 14.4 81 81 ENE 7 11 30.06 1018 10 16 0.00 0.00
9:53 am 09:53 Sunny 70 21.1 59 15 68 68 ESE 6 9 30.06 1018 10 16 0.00 0.00
10:53 am 10:53 Sunny 75 23.9 60 15.6 60 60 S 12 19 30.05 1018 10 16 0.00 0.00
11:53 am 11:53 Sunny 80 26.7 59 15 49 49 SSE 16 26 30.03 1017 10 16 0.00 0.00
12:53 pm 12:53 Sunny 83 28.3 58 14.4 43 43 S 15 24 30.01 1016 10 16 0.00 0.00
1:53 pm 13:53 Sunny 84 28.9 56 13.3 38 38 S 14 22 29.98 1015 10 16 0.00 0.00
2:53 pm 14:53 Sunny 86 30 54 12.2 33 33 S 16 26 29.94 1014 10 16 0.00 0.00
3:53 pm 15:53 Partly Cloudy 90 32.2 52 11.1 27 27 S 18 30 29.91 1013 10 16 0.00 0.00
4:53 pm 16:53 Partly Cloudy 87 30.6 51 10.6 29 29 SE 7 11 29.91 1013 10 16 0.00 0.00
5:53 pm 17:53 Sunny 88 31.1 50 10 27 27 S 10 17 29.90 1013 10 16 0.00 0.00
6:53 pm 18:53 Mostly Sunny 87 30.6 51 10.6 29 29 SE 13 20 29.90 1012 10 16 0.00 0.00
7:53 pm 19:53 Clear 83 28.3 51 10.6 33 33 SE 9 15 29.92 1013 10 16 0.00 0.00
8:53 pm 20:53 Clear 79 26.1 52 11.1 39 39 SE 7 11 29.94 1014 10 16 0.00 0.00
9:53 pm 21:53 Clear 78 25.6 52 11.1 40 40 SE 8 13 29.94 1014 10 16 0.00 0.00
10:53 pm 22:53 Clear 76 24.4 52 11.1 43 43 SE 8 13 29.93 1014 10 16 0.00 0.00
11:53 pm 23:53 Clear 74 23.3 52 11.1 46 46 SSE 7 11 29.93 1014 10 16 0.00 0.00

Powered by AerisWeather